This is the latest recevied weather packets stored in our database for station/object TULLARI. If no packets are shown the sender has not sent any weather packets the latest 10 day(s).
| Time | Temp. | Humidity | Pressure | Rain* | Wind** | Luminosity | Snow |
|---|---|---|---|---|---|---|---|
| 1777614423 | 6.67° C | 88% | 1022.1 hPa | - | - | - | - |
| 1777613223 | 6.67° C | 88% | 1022.2 hPa | - | - | - | - |
| 1777612023 | 6.67° C | 87% | 1022.2 hPa | - | - | - | - |
| 1777610823 | 6.67° C | 88% | 1022.2 hPa | - | - | - | - |
| 1777609623 | 6.11° C | 90% | 1022.2 hPa | - | - | - | - |
| 1777608424 | 6.11° C | 91% | 1022.2 hPa | - | - | - | - |
| 1777607224 | 5.56° C | 93% | 1022.3 hPa | - | - | - | - |
| 1777606025 | 5.56° C | 93% | 1022.4 hPa | - | - | - | - |
| 1777604824 | 5.56° C | 93% | 1022.5 hPa | - | - | - | - |
| 1777603625 | 5.56° C | 92% | 1022.7 hPa | - | - | - | - |
| 1777602424 | 5.56° C | 92% | 1022.7 hPa | - | - | - | - |
| 1777601223 | 5.56° C | 91% | 1022.6 hPa | - | - | - | - |
| 1777600024 | 5.56° C | 91% | 1022.6 hPa | - | - | - | - |
| 1777598824 | 5.56° C | 91% | 1022.5 hPa | - | - | - | - |
| 1777597623 | 5.56° C | 92% | 1022.5 hPa | - | - | - | - |
| 1777596423 | 5.56° C | 91% | 1022.5 hPa | - | - | - | - |
| 1777595224 | 5.56° C | 90% | 1022.6 hPa | - | - | - | - |
| 1777594023 | 5.56° C | 90% | 1022.6 hPa | - | - | - | - |
| 1777592823 | 6.11° C | 90% | 1022.7 hPa | - | - | - | - |
| 1777591624 | 5.56° C | 91% | 1022.7 hPa | - | - | - | - |
| 1777590422 | 6.11° C | 91% | 1022.7 hPa | - | - | - | - |
| 1777589223 | 6.11° C | 91% | 1022.8 hPa | - | - | - | - |
| 1777588023 | 6.11° C | 89% | 1022.7 hPa | - | - | - | - |
| 1777586822 | 6.67° C | 87% | 1022.5 hPa | - | - | - | - |
| 1777585623 | 7.22° C | 85% | 1022.3 hPa | - | - | - | - |
* Rain since midnight (hover to see other rain measurements)
** Current wind speed in m/s (hover to see current wind gust speed)